Location: Oslo
(59.9170°N, 10.7500°E)
Time: 09:57:47
(UTC+02:00)

ISS - Pass Details

Date: 29 March 2019
Orbit: 408 x 410 km, 51.6° (Epoch: 25 April)

Event Time Altitude Azimuth Distance (km) Brightness Sun altitude
Rises 20:04:13 0° 245° (WSW) 2,337 0.7 -9.4°
Reaches altitude 10° 20:06:39 10° 228° (SW) 1,475 -0.7 -9.7°
Maximum altitude 20:09:08 20° 179° (S) 1,021 -2.0 -10.0°
Enters shadow 20:10:55 14° 140° (SE) 1,275 -1.9 -10.2°
